Regional Weather Roundup
Issued by NWS Upton, NY

Current Version | Previous Version | Text Only | Print | Product List | Glossary On
Versions: 1 2 3 4 5 6 7 8 9 10 11 12 13 14 15 16 17 18 19 20 21 22 23 24 25 26 27 28 29 30 31 32 33 34 35 36 37 38 39 40 41 42 43 44 45 46 47 48 49 50
000 ASUS41 KOKX 012204 RWROKX REGIONAL WEATHER ROUNDUP NATIONAL WEATHER SERVICE NEW YORK NY 600 PM EDT TUE SEP 01 2015 NOTE: "FAIR" INDICATES FEW OR NO CLOUDS BELOW 12,000 FEET WITH NO SIGNIFICANT WEATHER AND/OR OBSTRUCTIONS TO VISIBILITY. NYZ071-072-176-178-NJZ106-104-012300- NEW YORK CITY METRO AREA CITY SKY/WX TMP DP RH WIND PRES REMARKS CENTRAL PARK SUNNY 84 63 49 VRB5 30.03F LAGUARDIA APRT MOSUNNY 84 63 49 S8 30.00S KENNEDY INTL MOSUNNY 80 64 58 SE10 30.03R NEWARK/LIBERTY MOSUNNY 82 65 56 SE7 30.00S BRNX BOT. GARD N/A 84 63 48 SE7 30.00F TETERBORO SUNNY 86 63 45 S7 29.99S $$ NYZ177-179-078>081-012300- LONG ISLAND NEW YORK CITY SKY/WX TMP DP RH WIND PRES REMARKS FARMINGDALE SUNNY 81 61 50 S9 30.02S ISLIP MOSUNNY 80 61 52 SE8 30.01S SHIRLEY SUNNY 80 63 55 SW6 30.03S WESTHAMPTON SUNNY 78 64 61 S6 30.04S MONTAUK POINT N/A 77 66 68 SE6 30.04S $$ NYZ052-065-067-012300- HUDSON VALLEY CITY SKY/WX TMP DP RH WIND PRES REMARKS WHITE PLAINS MOSUNNY 84 60 44 SE6 30.02R NEWBURGH SUNNY 84 61 45 W5 30.04F MONTGOMERY SUNNY 85 61 44 CALM 30.02S POUGHKEEPSIE SUNNY 87 58 37 CALM 30.00F ALBANY MOSUNNY 85 62 46 W7 30.00F $$ NJZ001-105-106-008-010-013-015-019>022-104-012300- NEW JERSEY CITY SKY/WX TMP DP RH WIND PRES REMARKS NEWARK/LIBERTY MOSUNNY 82 65 56 SE7 30.00S TETERBORO SUNNY 86 63 45 S7 29.99S CALDWELL SUNNY 89 58 34 N5 30.00S MORRISTOWN MOSUNNY 88 63 42 E3 30.00F SOMERVILLE SUNNY 89 61 38 NW8 29.98S SUSSEX SUNNY 85 61 44 CALM 30.04R ANDOVER N/A 84 65 52 CALM 30.04S TRENTON SUNNY 88 64 44 NW5 30.00S MILLVILLE SUNNY 85 71 63 S7 30.00S HX 90 ATLANTIC CITY SUNNY 81 71 71 E10 30.02S WRIGHTSTOWN SUNNY 82 69 62 SE8 29.98S TOMS RIVER SUNNY 81 66 61 SE6 30.02S BELMAR SUNNY 81 64 57 E8 30.02F $$ PAZ047>061-062-071-012300- EASTERN PENNSYLVANIA CITY SKY/WX TMP DP RH WIND PRES REMARKS PHILADELPHIA MOSUNNY 92 60 34 N5 29.99S HX 91 ALLENTOWN SUNNY 87 64 46 E5 30.02S SCRANTON SUNNY 86 61 42 NW5 30.04F $$ CTZ002-004>006-009-010-012-RIZ004-006-007-MAZ004-011-015-012300- SOUTHERN NEW ENGLAND IN CT CITY SKY/WX TMP DP RH WIND PRES REMARKS BRADLEY INTL SUNNY 85 58 39 N3 30.00F HARTFORD SUNNY 86 55 34 NE3 30.00S DANBURY SUNNY 85 58 39 CALM 30.03S WTRBRY/OXFORD MOSUNNY 82 63 51 S7 30.06 BRIDGEPORT SUNNY 84 60 44 S6 30.01S MERIDEN SUNNY 85 61 44 S7 30.00S NEW HAVEN SUNNY 82 61 48 S6 30.02S CHESTER NOT AVBL GROTON SUNNY 75 67 76 S6 30.03S WILLIMANTIC SUNNY 83 62 49 S12 30.01S IN RI CITY SKY/WX TMP DP RH WIND PRES REMARKS PROVIDENCE MOSUNNY 79 64 60 S10 30.02S BLOCK ISLAND SUNNY 75 66 73 S9 30.04S WESTERLY SUNNY 76 64 66 S7 30.04S IN MA CITY SKY/WX TMP DP RH WIND PRES REMARKS BOSTON SUNNY 72 63 73 E15 30.02F WORCESTER SUNNY 80 58 46 W7 30.05F WESTFIELD SUNNY 84 53 34 E3 30.01S PROVINCETOWN N/A 73 57 56 E5 30.04S NANTUCKET SUNNY 74 59 59 E6 30.03F $$ ANZ330-335-338-340-345-350-353-355-012300- COASTAL MARINE OBSERVATIONS STATION/POSITION TIME SKY/WX TEMP WIND PRES VSBY WAVE AIR SEA DIR/SP/G HT/PER (UTC) (F) (DEG/KT/KT) (MB) (MI) (FT/S) NY HARB ENTRANCE 2050 77 77 130/ 10/ 10 1016.3 2/ 8 4S FIRE IS NOT AVBL 20S FIRE ISLAND 2050 76 76 130/ 4/ 6 1016.6 2/ 9 GREAT SOUTH BAY 2100 76 80 160/ 6/ 6 N/A 23SW MTP 2150 74 73 140/ 6/ 6 1016.4 2/ 8 HUDSON CANYON NOT AVBL KINGS POINT 2100 82 74 200/ 5/ 8 1015.5 EXECUTION ROCKS 2100 82 180/ 6/ 8 N/A CENTRAL LI SOUND NOT AVBL EASTERN LI SOUND 2100 74 71 150/ 6/ 6 N/A ROBBINS REEF 2100 77 180/ 15/ 16 1015.0 $$ >>>>>>>>>>>>>>>>>>>>>>>>>>>> KEY <<<<<<<<<<<<<<<<<<<<<<<<<<< > < > SKY/WX - SKY CONDITION/PRESENT WEATHER < > TMP - TEMPERATURE IN FAHRENHEIT < > DP - DEWPOINT IN FAHRENHEIT < > RH - RELATIVE HUMIDITY IN PERCENT < > WIND - DIRECTION AND SPEED IN MPH < > PRES - MEAN SEA LEVEL PRESSURE IN INCHES OF HG < > WCI - WIND CHILL INDEX < > VSB - VISIBILITY IN MILES < > HX - HEAT INDEX < > TC - TEMPERATURE IN CELSIUS < > VRB - VARIABLE WIND DIRECTION < > < >>>>>>>>>>>>>>>>>>>>>>>>>>>> KEY <<<<<<<<<<<<<<<<<<<<<<<<<<<

USA.gov is the U.S. government's official web portal to all federal, state and local government web resources and services.